Tiempo cada hora Czyzowice

Hoy, 22 Junio, Martes

Tiempo Temperatura Precipitaciones Viento Presión Humedad
00:00 +21°C° 0 mm 1 mps 733 mmHg 91%
01:00 +21°C° 0 mm 1 mps 733 mmHg 91%
02:00 +21°C° 0.1 mm 1 mps 732 mmHg 90%
03:00 +21°C° 0.1 mm 1 mps 732 mmHg 89%
04:00 +19°C° 0.1 mm 0 mps 732 mmHg 89%
05:00 +22°C° 0 mm 1 mps 733 mmHg 84%
06:00 +24°C° 0 mm 1 mps 733 mmHg 79%
07:00 +25°C° 0 mm 1 mps 733 mmHg 74%
08:00 +26°C° 0.4 mm 2 mps 734 mmHg 72%
09:00 +27°C° 0.4 mm 3 mps 734 mmHg 69%
10:00 +27°C° 0.4 mm 3 mps 734 mmHg 67%
11:00 +28°C° 0.1 mm 3 mps 734 mmHg 64%
12:00 +29°C° 0.1 mm 3 mps 734 mmHg 62%
13:00 +29°C° 0.1 mm 3 mps 735 mmHg 59%
14:00 +29°C° 0.3 mm 3 mps 735 mmHg 62%
15:00 +28°C° 0.3 mm 4 mps 735 mmHg 64%
16:00 +28°C° 0.3 mm 4 mps 735 mmHg 67%
17:00 +26°C° 2.2 mm 4 mps 735 mmHg 76%
18:00 +22°C° 2.2 mm 4 mps 735 mmHg 85%
19:00 +20°C° 2.2 mm 4 mps 736 mmHg 94%
20:00 +20°C° 0.9 mm 4 mps 736 mmHg 95%
21:00 +19°C° 0.9 mm 4 mps 737 mmHg 96%
22:00 +19°C° 0.9 mm 3 mps 737 mmHg 96%
23:00 +19°C° 0.2 mm 3 mps 737 mmHg 96%

Mañana, 23 Junio, Miércoles

Tiempo Temperatura Precipitaciones Viento Presión Humedad
00:00 +19°C° 0.2 mm 3 mps 737 mmHg 97%
01:00 +19°C° 0.2 mm 2 mps 737 mmHg 97%
02:00 +18°C° 0 mm 2 mps 737 mmHg 97%
03:00 +18°C° 0 mm 2 mps 737 mmHg 97%
04:00 +18°C° 0 mm 3 mps 737 mmHg 96%
05:00 +18°C° 0 mm 3 mps 738 mmHg 96%
06:00 +18°C° 0 mm 3 mps 738 mmHg 95%
07:00 +18°C° 0 mm 3 mps 739 mmHg 95%
08:00 +18°C° 0 mm 3 mps 739 mmHg 93%
09:00 +19°C° 0 mm 3 mps 739 mmHg 92%
10:00 +19°C° 0 mm 3 mps 739 mmHg 90%
11:00 +19°C° 0 mm 3 mps 740 mmHg 88%
12:00 +20°C° 0 mm 3 mps 740 mmHg 85%
13:00 +21°C° 0 mm 3 mps 740 mmHg 82%
14:00 +21°C° 0 mm 3 mps 740 mmHg 80%
15:00 +23°C° 0 mm 2 mps 740 mmHg 77%
16:00 +24°C° 0 mm 2 mps 739 mmHg 74%
17:00 +23°C° 0 mm 2 mps 739 mmHg 76%
18:00 +23°C° 0 mm 2 mps 740 mmHg 79%
19:00 +21°C° 0 mm 2 mps 740 mmHg 81%
20:00 +21°C° 0 mm 2 mps 739 mmHg 83%
21:00 +20°C° 0 mm 2 mps 739 mmHg 85%
22:00 +20°C° 0 mm 2 mps 739 mmHg 87%
23:00 +20°C° 0.1 mm 1 mps 739 mmHg 89%

Pasado mañana, 24 Junio, Jueves

Tiempo Temperatura Precipitaciones Viento Presión Humedad
00:00 +19°C° 0.1 mm 1 mps 739 mmHg 92%
01:00 +19°C° 0.1 mm 1 mps 739 mmHg 94%
02:00 +19°C° 0.2 mm 1 mps 739 mmHg 95%
03:00 +19°C° 0.2 mm 1 mps 739 mmHg 96%
04:00 +18°C° 0.2 mm 1 mps 739 mmHg 97%
05:00 +19°C° 1.1 mm 1 mps 739 mmHg 95%
06:00 +20°C° 1.1 mm 1 mps 739 mmHg 94%
07:00 +21°C° 1.1 mm 1 mps 739 mmHg 92%
08:00 +22°C° 0.4 mm 1 mps 739 mmHg 89%
09:00 +23°C° 0.4 mm 2 mps 739 mmHg 85%
10:00 +24°C° 0.4 mm 2 mps 739 mmHg 82%
11:00 +25°C° 0 mm 2 mps 738 mmHg 78%
12:00 +26°C° 0 mm 2 mps 738 mmHg 73%
13:00 +27°C° 0 mm 2 mps 738 mmHg 69%
14:00 +28°C° 0 mm 2 mps 738 mmHg 67%
15:00 +28°C° 0 mm 2 mps 738 mmHg 65%
16:00 +29°C° 0 mm 2 mps 737 mmHg 64%
17:00 +27°C° 0.4 mm 2 mps 737 mmHg 70%
18:00 +26°C° 0.4 mm 2 mps 736 mmHg 77%
19:00 +25°C° 0.4 mm 2 mps 736 mmHg 84%
20:00 +24°C° 0.8 mm 2 mps 735 mmHg 87%
21:00 +23°C° 0.8 mm 2 mps 735 mmHg 90%
22:00 +21°C° 0.8 mm 2 mps 734 mmHg 93%
23:00 +20°C° 0.8 mm 2 mps 734 mmHg 94%

25 Junio, Viernes

Tiempo Temperatura Precipitaciones Viento Presión Humedad
00:00 +20°C° 0.8 mm 2 mps 734 mmHg 94%
01:00 +19°C° 0.8 mm 2 mps 734 mmHg 94%
02:00 +18°C° 0 mm 3 mps 734 mmHg 94%
03:00 +18°C° 0 mm 3 mps 735 mmHg 95%
04:00 +17°C° 0 mm 3 mps 735 mmHg 95%
05:00 +17°C° 0 mm 3 mps 736 mmHg 93%
06:00 +18°C° 0 mm 3 mps 736 mmHg 91%
07:00 +18°C° 0 mm 3 mps 737 mmHg 89%
08:00 +18°C° 0.1 mm 3 mps 737 mmHg 87%
09:00 +19°C° 0.1 mm 4 mps 738 mmHg 85%
10:00 +19°C° 0.1 mm 4 mps 738 mmHg 82%
11:00 +20°C° 0.2 mm 3 mps 738 mmHg 79%
12:00 +20°C° 0.2 mm 3 mps 738 mmHg 75%
13:00 +21°C° 0.2 mm 3 mps 739 mmHg 72%
14:00 +21°C° 0.1 mm 3 mps 739 mmHg 71%
15:00 +21°C° 0.1 mm 3 mps 739 mmHg 70%
16:00 +21°C° 0.1 mm 3 mps 739 mmHg 70%
17:00 +20°C° 0 mm 3 mps 739 mmHg 72%
18:00 +19°C° 0 mm 2 mps 739 mmHg 75%
19:00 +19°C° 0 mm 2 mps 739 mmHg 78%
20:00 +18°C° 0 mm 2 mps 739 mmHg 82%
21:00 +17°C° 0 mm 2 mps 739 mmHg 85%
22:00 +16°C° 0 mm 2 mps 739 mmHg 89%
23:00 +15°C° 0 mm 1 mps 739 mmHg 90%

26 Junio, Sábado

Tiempo Temperatura Precipitaciones Viento Presión Humedad
00:00 +15°C° 0 mm 1 mps 740 mmHg 91%
01:00 +13°C° 0 mm 0 mps 740 mmHg 92%
02:00 +13°C° 0 mm 0 mps 740 mmHg 92%
03:00 +13°C° 0 mm 0 mps 740 mmHg 92%
04:00 +13°C° 0 mm 0 mps 739 mmHg 92%
05:00 +15°C° 0 mm 1 mps 740 mmHg 86%
06:00 +18°C° 0 mm 1 mps 740 mmHg 81%
07:00 +19°C° 0 mm 1 mps 740 mmHg 75%
08:00 +21°C° 0 mm 1 mps 740 mmHg 69%
09:00 +22°C° 0 mm 1 mps 740 mmHg 63%
10:00 +23°C° 0 mm 2 mps 740 mmHg 56%
11:00 +24°C° 0 mm 2 mps 740 mmHg 53%
12:00 +25°C° 0 mm 2 mps 740 mmHg 50%
13:00 +26°C° 0 mm 2 mps 740 mmHg 47%
14:00 +26°C° 0 mm 2 mps 740 mmHg 47%
15:00 +26°C° 0 mm 2 mps 740 mmHg 47%
16:00 +26°C° 0 mm 2 mps 740 mmHg 47%
17:00 +25°C° 0 mm 2 mps 740 mmHg 53%
18:00 +23°C° 0 mm 2 mps 740 mmHg 60%
19:00 +21°C° 0 mm 2 mps 739 mmHg 66%
20:00 +20°C° 0 mm 2 mps 740 mmHg 69%
21:00 +18°C° 0 mm 2 mps 740 mmHg 72%
22:00 +18°C° 0 mm 1 mps 740 mmHg 75%
23:00 +16°C° 0 mm 1 mps 740 mmHg 76%

27 Junio, Domingo

Tiempo Temperatura Precipitaciones Viento Presión Humedad
00:00 +16°C° 0 mm 1 mps 740 mmHg 78%
01:00 +15°C° 0 mm 1 mps 740 mmHg 80%
02:00 +15°C° 0 mm 1 mps 740 mmHg 81%
03:00 +15°C° 0 mm 1 mps 740 mmHg 82%
04:00 +15°C° 0 mm 1 mps 740 mmHg 84%
05:00 +16°C° 0 mm 1 mps 740 mmHg 78%
06:00 +19°C° 0 mm 1 mps 740 mmHg 73%
07:00 +21°C° 0 mm 1 mps 740 mmHg 68%
08:00 +23°C° 0 mm 1 mps 740 mmHg 62%
09:00 +24°C° 0 mm 2 mps 740 mmHg 55%
10:00 +26°C° 0 mm 2 mps 740 mmHg 49%
11:00 +27°C° 0 mm 2 mps 740 mmHg 46%
12:00 +28°C° 0 mm 2 mps 739 mmHg 43%
13:00 +29°C° 0 mm 2 mps 739 mmHg 40%
14:00 +29°C° 0 mm 2 mps 739 mmHg 41%
15:00 +29°C° 0 mm 2 mps 739 mmHg 42%
16:00 +29°C° 0 mm 2 mps 739 mmHg 43%
17:00 +27°C° 0 mm 2 mps 739 mmHg 51%
18:00 +26°C° 0 mm 2 mps 739 mmHg 60%
19:00 +24°C° 0 mm 2 mps 738 mmHg 68%
20:00 +23°C° 0 mm 2 mps 739 mmHg 71%
21:00 +21°C° 0 mm 2 mps 739 mmHg 74%
22:00 +20°C° 0 mm 2 mps 739 mmHg 77%
23:00 +19°C° 0 mm 2 mps 739 mmHg 79%
Mostrar más

Necesitamos Su Consentimiento

Meteoprog y nuestros Proveedores de Servicios pueden almacenar y acceder a sus datos personales como cookies, identificadores de dispositivo u otras tecnologías similares de su dispositivo y procesar dichos datos para personalizar contenido y anuncios, además de ofrecer funciones de redes sociales y analizar el tráfico.

  • Almacenar y/o acceder a información en su dispositivo

    Se puede almacenar o acceder a cookies, identificadores de dispositivo u otra información de su dispositivo para los fines anteriormente indicados.

  • Anuncios y contenido personalizados, medición de anuncios y contenido, percepciones del público, y desarrollo de productos

    Los anuncios y el contenido pueden personalizarse en base a su perfil. Se pueden añadir más datos para personalizar mejor los anuncios y contenidos. Se puede medir el rendimiento de los anuncios y contenidos. Se puede obtener la percepción sobre el público que ha visto los anuncios y contenidos. Dichos datos pueden usarse para desarrollar o mejorar la experiencia del usuario, sistemas y software.

Al hacer clic en ‘Estoy De Acuerdo’ usted permitirá el uso de las cookies, identificadores de dispositivo, balizas web u otras tecnologías similares indicadas. Su configuración puede cambiarse desde el navegador de su dispositivo.

Para ciertos fines, los intereses legítimos pueden ser considerados por encima del consentimiento. Puede leer más sobre ello en nuestra Política de Privacidad y Cookies.